{"data":{"norad_id":65886,"epoch":"2026-09-20T11:34:29.272800Z","epoch_age_seconds":107723,"freshness":"FRESH","line1":"1 65886U 25224E   26263.48228325  .00020063  00000+0  60383-3 0  9994","line2":"2 65886  53.1563 181.9031 0000710 130.8341 229.2723 15.34373163 54663","mean_motion":15.34373163,"eccentricity":7.1e-5,"inclination_deg":53.1563,"raan_deg":181.9031,"arg_perigee_deg":130.8341,"mean_anomaly_deg":229.2723,"bstar":0.00060383,"rev_number":5466,"period_min":93.849399528373,"perigee_km":462.29730126889,"apogee_km":463.26871190982,"semimajor_km":6840.9200065894,"source":"CELESTRAK","updated_at":"2026-09-21T09:00:35.755674Z"}}